Time,TemperatureF,DewpointF,PressureIn,WindDirection,WindDirectionDegrees,WindSpeedMPH,WindSpeedGustMPH,Humidity,HourlyPrecipIn,Conditions,Clouds,dailyrainin,SoftwareType,DateUTC
2013-02-17 00:03:00,36.1,35.0,30.39,NW,323,0.0,0.0,97,0.00,,,0.00,weatherlink.com 1.10,2013-02-17 08:03:00,
2013-02-17 00:18:00,37.0,37.0,30.39,NW,323,0.0,0.0,98,0.00,,,0.00,weatherlink.com 1.10,2013-02-17 08:18:00,
2013-02-17 00:33:00,37.7,37.0,30.39,NNW,347,0.0,1.0,97,0.00,,,0.00,weatherlink.com 1.10,2013-02-17 08:33:00,
2013-02-17 00:48:00,37.7,37.0,30.38,NNW,347,0.0,0.0,96,0.00,,,0.00,weatherlink.com 1.10,2013-02-17 08:48:00,
2013-02-17 01:03:00,37.4,36.0,30.39,NNW,347,0.0,0.0,96,0.00,,,0.00,weatherlink.com 1.10,2013-02-17 09:03:00,
2013-02-17 01:18:00,37.5,37.0,30.39,NNE,18,0.0,1.0,97,0.00,,,0.00,weatherlink.com 1.10,2013-02-17 09:18:00,
2013-02-17 01:33:00,38.1,37.0,30.40,ENE,78,0.0,2.0,95,0.00,,,0.00,weatherlink.com 1.10,2013-02-17 09:33:00,
2013-02-17 01:48:00,38.0,37.0,30.40,ESE,112,0.0,2.0,95,0.00,,,0.00,weatherlink.com 1.10,2013-02-17 09:48:00,
2013-02-17 02:03:00,37.9,37.0,30.40,ENE,78,0.0,0.0,95,0.00,,,0.00,weatherlink.com 1.10,2013-02-17 10:03:00,
2013-02-17 02:18:00,37.2,36.0,30.40,ENE,78,0.0,0.0,95,0.00,,,0.00,weatherlink.com 1.10,2013-02-17 10:18:00,
2013-02-17 02:33:00,36.4,35.0,30.39,ENE,59,0.0,1.0,95,0.00,,,0.00,weatherlink.com 1.10,2013-02-17 10:33:00,
2013-02-17 02:48:00,35.7,34.0,30.40,ENE,60,0.0,1.0,95,0.00,,,0.00,weatherlink.com 1.10,2013-02-17 10:48:00,
2013-02-17 03:03:00,34.8,34.0,30.39,ENE,59,0.0,0.0,96,0.00,,,0.00,weatherlink.com 1.10,2013-02-17 11:03:00,
2013-02-17 03:18:00,34.0,33.0,30.40,ENE,59,0.0,0.0,96,0.00,,,0.00,weatherlink.com 1.10,2013-02-17 11:18:00,
2013-02-17 03:33:00,33.8,33.0,30.39,NE,46,0.0,3.0,97,0.00,,,0.00,weatherlink.com 1.10,2013-02-17 11:33:00,
2013-02-17 03:48:00,34.0,33.0,30.39,NE,46,0.0,1.0,97,0.00,,,0.00,weatherlink.com 1.10,2013-02-17 11:48:00,
2013-02-17 04:03:00,34.0,33.0,30.39,NE,46,0.0,1.0,97,0.00,,,0.00,weatherlink.com 1.10,2013-02-17 12:03:00,
2013-02-17 04:18:00,34.3,34.0,30.39,NE,46,0.0,1.0,97,0.00,,,0.00,weatherlink.com 1.10,2013-02-17 12:18:00,
2013-02-17 04:33:00,34.3,34.0,30.39,NE,46,0.0,0.0,97,0.00,,,0.00,weatherlink.com 1.10,2013-02-17 12:33:00,
2013-02-17 04:48:00,34.5,34.0,30.39,NE,46,0.0,0.0,97,0.00,,,0.00,weatherlink.com 1.10,2013-02-17 12:48:00,
2013-02-17 05:03:00,35.0,35.0,30.39,NE,46,0.0,0.0,98,0.00,,,0.00,weatherlink.com 1.10,2013-02-17 13:03:00,
2013-02-17 05:18:00,35.2,35.0,30.39,NE,46,0.0,0.0,97,0.00,,,0.00,weatherlink.com 1.10,2013-02-17 13:18:00,
2013-02-17 05:33:00,35.3,35.0,30.39,NE,46,0.0,1.0,97,0.00,,,0.00,weatherlink.com 1.10,2013-02-17 13:33:00,
2013-02-17 05:48:00,35.5,35.0,30.39,NE,46,0.0,0.0,97,0.00,,,0.00,weatherlink.com 1.10,2013-02-17 13:48:00,
2013-02-17 06:03:00,35.5,35.0,30.39,NE,46,0.0,0.0,97,0.00,,,0.00,weatherlink.com 1.10,2013-02-17 14:03:00,
2013-02-17 06:18:00,35.7,35.0,30.39,NE,46,0.0,0.0,97,0.00,,,0.00,weatherlink.com 1.10,2013-02-17 14:18:00,
2013-02-17 06:33:00,35.6,35.0,30.39,NE,46,0.0,0.0,97,0.00,,,0.00,weatherlink.com 1.10,2013-02-17 14:33:00,
2013-02-17 06:48:00,35.6,35.0,30.39,NE,46,0.0,0.0,97,0.00,,,0.00,weatherlink.com 1.10,2013-02-17 14:48:00,
2013-02-17 07:03:00,35.6,35.0,30.39,NE,46,0.0,0.0,97,0.00,,,0.00,weatherlink.com 1.10,2013-02-17 15:03:00,
2013-02-17 07:19:00,35.6,35.0,30.38,NE,46,0.0,0.0,97,0.00,,,0.00,weatherlink.com 1.10,2013-02-17 15:19:00,
2013-02-17 07:34:00,35.8,35.0,30.38,NE,46,0.0,0.0,98,0.00,,,0.00,weatherlink.com 1.10,2013-02-17 15:34:00,
2013-02-17 07:48:00,36.1,36.0,30.38,NE,45,0.0,0.0,98,0.00,,,0.00,weatherlink.com 1.10,2013-02-17 15:48:00,
2013-02-17 08:03:00,36.5,36.0,30.39,NE,46,0.0,0.0,98,0.00,,,0.00,weatherlink.com 1.10,2013-02-17 16:03:00,
2013-02-17 08:19:00,37.3,37.0,30.39,NE,46,0.0,0.0,98,0.00,,,0.00,weatherlink.com 1.10,2013-02-17 16:19:00,
2013-02-17 08:34:00,38.2,38.0,30.39,NE,46,0.0,1.0,98,0.00,,,0.00,weatherlink.com 1.10,2013-02-17 16:34:00,
2013-02-17 08:49:00,39.1,38.0,30.39,NE,55,0.0,1.0,97,0.00,,,0.00,weatherlink.com 1.10,2013-02-17 16:49:00,
2013-02-17 09:04:00,39.2,38.0,30.39,NE,55,0.0,1.0,95,0.00,,,0.00,weatherlink.com 1.10,2013-02-17 17:04:00,
2013-02-17 09:18:00,40.7,39.0,30.39,SE,146,0.0,1.0,94,0.00,,,0.00,weatherlink.com 1.10,2013-02-17 17:18:00,
2013-02-17 09:33:00,41.6,39.0,30.39,SE,128,0.0,1.0,90,0.00,,,0.00,weatherlink.com 1.10,2013-02-17 17:33:00,
2013-02-17 09:49:00,43.6,40.0,30.38,SSE,156,1.0,2.0,87,0.00,,,0.00,weatherlink.com 1.10,2013-02-17 17:49:00,
2013-02-17 10:04:00,44.6,40.0,30.38,SW,222,1.0,2.0,83,0.00,,,0.00,weatherlink.com 1.10,2013-02-17 18:04:00,
2013-02-17 10:34:00,46.1,40.0,30.37,ESE,113,4.0,4.0,78,0.00,,,0.00,weatherlink.com 1.10,2013-02-17 18:34:00,
2013-02-17 10:49:00,46.4,40.0,30.37,NE,46,1.0,4.0,78,0.00,,,0.00,weatherlink.com 1.10,2013-02-17 18:49:00,
2013-02-17 11:04:00,47.1,40.0,30.37,ESE,117,3.0,4.0,75,0.00,,,0.00,weatherlink.com 1.10,2013-02-17 19:04:00,
2013-02-17 11:19:00,48.3,39.0,30.37,NW,304,0.0,3.0,71,0.00,,,0.00,weatherlink.com 1.10,2013-02-17 19:19:00,
2013-02-17 11:34:00,46.8,37.0,30.36,ESE,114,2.0,3.0,70,0.00,,,0.00,weatherlink.com 1.10,2013-02-17 19:34:00,
2013-02-17 11:49:00,46.3,38.0,30.36,SE,125,0.0,1.0,72,0.00,,,0.00,weatherlink.com 1.10,2013-02-17 19:49:00,
2013-02-17 12:04:00,47.1,38.0,30.36,NE,49,0.0,1.0,71,0.00,,,0.00,weatherlink.com 1.10,2013-02-17 20:04:00,
2013-02-17 12:19:00,46.5,36.0,30.36,ENE,60,1.0,3.0,67,0.00,,,0.00,weatherlink.com 1.10,2013-02-17 20:19:00,
2013-02-17 12:34:00,46.9,36.0,30.35,NNW,329,0.0,1.0,65,0.00,,,0.00,weatherlink.com 1.10,2013-02-17 20:34:00,
2013-02-17 12:49:00,47.1,37.0,30.34,West,278,1.0,2.0,67,0.00,,,0.00,weatherlink.com 1.10,2013-02-17 20:49:00,
2013-02-17 13:04:00,47.5,37.0,30.34,East,89,0.0,1.0,67,0.00,,,0.00,weatherlink.com 1.10,2013-02-17 21:04:00,
2013-02-17 13:19:00,47.8,36.0,30.34,ESE,110,0.0,2.0,63,0.00,,,0.00,weatherlink.com 1.10,2013-02-17 21:19:00,
2013-02-17 13:34:00,47.5,35.0,30.34,SSE,153,0.0,2.0,62,0.00,,,0.00,weatherlink.com 1.10,2013-02-17 21:34:00,
2013-02-17 13:49:00,47.5,36.0,30.33,East,93,1.0,2.0,64,0.00,,,0.00,weatherlink.com 1.10,2013-02-17 21:49:00,
2013-02-17 14:04:00,47.6,35.0,30.32,SE,124,0.0,2.0,62,0.00,,,0.00,weatherlink.com 1.10,2013-02-17 22:04:00,
2013-02-17 14:19:00,47.6,33.0,30.32,East,82,0.0,2.0,57,0.00,,,0.00,weatherlink.com 1.10,2013-02-17 22:19:00,
2013-02-17 14:35:00,48.1,33.0,30.32,NW,326,1.0,2.0,56,0.00,,,0.00,weatherlink.com 1.10,2013-02-17 22:35:00,
2013-02-17 14:50:00,47.6,33.0,30.31,NW,320,0.0,3.0,58,0.00,,,0.00,weatherlink.com 1.10,2013-02-17 22:50:00,
2013-02-17 15:19:00,48.1,35.0,30.30,East,94,1.0,2.0,60,0.00,,,0.00,weatherlink.com 1.10,2013-02-17 23:19:00,
2013-02-17 15:34:00,47.3,34.0,30.30,NE,51,2.0,3.0,60,0.00,,,0.00,weatherlink.com 1.10,2013-02-17 23:34:00,
2013-02-17 15:49:00,47.2,35.0,30.30,NW,326,2.0,2.0,62,0.00,,,0.00,weatherlink.com 1.10,2013-02-17 23:49:00,
2013-02-17 16:04:00,46.9,35.0,30.29,NE,55,0.0,3.0,64,0.00,,,0.00,weatherlink.com 1.10,2013-02-18 00:04:00,
2013-02-17 16:19:00,46.8,35.0,30.29,NNE,25,0.0,4.0,65,0.00,,,0.00,weatherlink.com 1.10,2013-02-18 00:19:00,
2013-02-17 16:34:00,46.5,36.0,30.28,North,11,1.0,3.0,66,0.00,,,0.00,weatherlink.com 1.10,2013-02-18 00:34:00,
2013-02-17 16:49:00,46.2,35.0,30.28,NNW,328,0.0,3.0,66,0.00,,,0.00,weatherlink.com 1.10,2013-02-18 00:49:00,
2013-02-17 17:04:00,46.0,36.0,30.28,NW,326,0.0,1.0,67,0.00,,,0.00,weatherlink.com 1.10,2013-02-18 01:04:00,
2013-02-17 17:19:00,45.5,35.0,30.27,NNE,20,0.0,1.0,68,0.00,,,0.00,weatherlink.com 1.10,2013-02-18 01:19:00,
2013-02-17 17:35:00,44.9,36.0,30.27,NNE,22,0.0,1.0,70,0.00,,,0.00,weatherlink.com 1.10,2013-02-18 01:35:00,
2013-02-17 17:50:00,44.3,36.0,30.26,NNE,22,0.0,0.0,73,0.00,,,0.00,weatherlink.com 1.10,2013-02-18 01:50:00,
2013-02-17 18:05:00,43.2,36.0,30.26,NNE,22,0.0,0.0,76,0.00,,,0.00,weatherlink.com 1.10,2013-02-18 02:05:00,
2013-02-17 18:20:00,42.4,36.0,30.25,NNE,22,0.0,0.0,78,0.00,,,0.00,weatherlink.com 1.10,2013-02-18 02:20:00,
2013-02-17 18:35:00,41.2,36.0,30.25,NNE,22,0.0,0.0,82,0.00,,,0.00,weatherlink.com 1.10,2013-02-18 02:35:00,
2013-02-17 18:50:00,40.6,36.0,30.25,WNW,290,0.0,1.0,82,0.00,,,0.00,weatherlink.com 1.10,2013-02-18 02:50:00,
2013-02-17 19:05:00,40.6,35.0,30.25,NNW,338,0.0,1.0,80,0.00,,,0.00,weatherlink.com 1.10,2013-02-18 03:05:00,
2013-02-17 19:20:00,40.3,35.0,30.24,NNW,337,0.0,0.0,80,0.00,,,0.00,weatherlink.com 1.10,2013-02-18 03:20:00,
2013-02-17 19:35:00,39.1,34.0,30.24,NNW,337,0.0,0.0,83,0.00,,,0.00,weatherlink.com 1.10,2013-02-18 03:35:00,
2013-02-17 19:50:00,38.8,34.0,30.24,NNW,338,0.0,0.0,84,0.00,,,0.00,weatherlink.com 1.10,2013-02-18 03:50:00,
2013-02-17 20:05:00,39.1,34.0,30.24,NW,314,0.0,1.0,81,0.00,,,0.00,weatherlink.com 1.10,2013-02-18 04:05:00,
2013-02-17 20:20:00,39.0,34.0,30.23,NW,316,0.0,3.0,82,0.00,,,0.00,weatherlink.com 1.10,2013-02-18 04:20:00,
2013-02-17 20:35:00,39.7,35.0,30.23,NW,316,0.0,2.0,82,0.00,,,0.00,weatherlink.com 1.10,2013-02-18 04:35:00,
2013-02-17 20:50:00,40.2,35.0,30.23,WNW,290,2.0,4.0,83,0.00,,,0.00,weatherlink.com 1.10,2013-02-18 04:50:00,
2013-02-17 21:05:00,40.0,36.0,30.23,WNW,300,0.0,3.0,84,0.00,,,0.00,weatherlink.com 1.10,2013-02-18 05:05:00,
2013-02-17 21:20:00,40.0,36.0,30.23,NW,319,1.0,5.0,85,0.00,,,0.00,weatherlink.com 1.10,2013-02-18 05:20:00,
2013-02-17 21:35:00,40.1,36.0,30.22,NNE,30,1.0,4.0,85,0.00,,,0.00,weatherlink.com 1.10,2013-02-18 05:35:00,
2013-02-17 21:50:00,40.1,36.0,30.22,NW,323,0.0,4.0,85,0.00,,,0.00,weatherlink.com 1.10,2013-02-18 05:50:00,
2013-02-17 22:05:00,39.9,36.0,30.21,NW,318,0.0,5.0,86,0.00,,,0.00,weatherlink.com 1.10,2013-02-18 06:05:00,
2013-02-17 22:20:00,40.0,36.0,30.22,NNW,333,1.0,5.0,85,0.00,,,0.00,weatherlink.com 1.10,2013-02-18 06:20:00,
2013-02-17 22:35:00,39.7,36.0,30.21,NE,39,0.0,4.0,86,0.00,,,0.00,weatherlink.com 1.10,2013-02-18 06:35:00,
2013-02-17 22:50:00,38.9,35.0,30.21,NNE,32,1.0,1.0,87,0.00,,,0.00,weatherlink.com 1.10,2013-02-18 06:50:00,
2013-02-17 23:05:00,38.4,36.0,30.20,WNW,298,0.0,3.0,89,0.00,,,0.00,weatherlink.com 1.10,2013-02-18 07:05:00,
2013-02-17 23:20:00,38.5,36.0,30.19,NE,43,0.0,2.0,89,0.00,,,0.00,weatherlink.com 1.10,2013-02-18 07:20:00,
2013-02-17 23:35:00,38.6,36.0,30.19,NNW,331,0.0,4.0,89,0.00,,,0.00,weatherlink.com 1.10,2013-02-18 07:35:00,
2013-02-17 23:50:00,38.3,36.0,30.19,North,6,1.0,1.0,90,0.00,,,0.00,weatherlink.com 1.10,2013-02-18 07:50:00,